Location: Borojevi?i
(45.0486°N, 16.2297°E)
Time: 21:56:04
(UTC+00:00)

Ariane Rocket - Pass Details

Date: 08 August 2020
Orbit: 760 x 770 km, 98.7° (Epoch: 21 September)

Event Time Altitude Azimuth Distance (km) Brightness Sun altitude
Rises 18:30:24 0° 165° (SSE) 3,217 5.8 -3.8°
Reaches altitude 10° 18:32:41 10° 165° (SSE) 2,294 5.1 -4.2°
Maximum altitude 18:37:45 87° 255° (WSW) 771 3.1 -4.9°
Drops below altitude 10° 18:42:51 10° 345° (NNW) 2,306 6.2 -5.7°
Sets 18:45:10 0° 346° (NNW) 3,235 7.0 -6.1°
